Location: Sevilla
(37.3933°N, 5.9839°W)
Time: 04:28:08
(UTC+02:00)

Transit 2A Rocket - Pass Details

Date: 29 June 2024
Orbit: 582 x 910 km, 66.7° (Epoch: 15 July)

Event Time Altitude Azimuth Distance (km) Brightness Sun altitude
Rises 21:16:02 0° 229° (SW) 3,081 8.5 4.9°
Reaches altitude 10° 21:18:25 10° 238° (WSW) 2,219 7.9 4.5°
Maximum altitude 21:23:08 37° 306° (NW) 1,187 7.1 3.7°
Drops below altitude 10° 21:28:19 10° 13° (NNE) 2,435 7.8 2.7°
Sets 21:31:04 0° 22° (NNE) 3,421 8.4 2.3°
